Wind_Speed
33 33 35 30 33 34 33 29 28 32 32 30 25 22 19 15 14 12 13 11 11 9
32 27 27 31 31 33 31 32 31 32 33 29 26 23 20 16 11 11 12 10 10 10
22 21 22 27 30 31 33 33 33 30 31 32 27 24 18 14 11 10 10 10 11 11
23 20 22 26 25 25 29 31 30 31 32 32 29 22 20 11 10 7 10 13 13 13
19 19 23 23 23 27 29 29 30 31 33 32 24 22 16 14 11 10 13 14 16 16
19 24 26 26 27 27 26 24 26 27 31 32 25 20 17 15 10 17 17 16 18 19
22 24 24 23 22 22 22 21 23 28 25 20 16 19 20 18 20 24 16 20 23 24
11 12 12 13 15 17 17 20 21 21 23 24 27 25 21 25 29 27 25 22 24 26
6 8 10 11 12 13 14 15 20 25 25 26 25 29 30 33 30 29 22 22 23 24
4 5 6 8 10 12 14 17 23 24 26 25 29 34 35 32 32 31 22 23 24 25
2 1 3 5 7 9 11 14 16 19 19 18 29 30 28 28 24 23 25 24 25 26
7 6 5 4 2 1 2 4 8 13 13 17 23 24 16 20 24 25 26 23 25 25
12 11 9 6 4 1 5 10 11 15 18 17 16 18 21 22 24 26 26 26 25 27
8 5 2 2 5 6 8 7 7 12 14 16 17 19 21 21 24 25 28 29 30 29
Wind_Direction
243 247 250 243 252 253 249 249 244 237 233 233 234 244 255 264 271 274 254 252 256 249
250 250 242 244 252 250 249 245 237 238 235 237 238 244 256 265 267 246 260 245 247 250
253 254 252 252 253 250 246 240 238 239 238 236 239 247 249 256 235 248 249 256 249 251
247 251 249 249 249 248 249 247 241 242 240 238 237 244 239 225 231 252 261 263 254 257
242 238 244 249 250 249 248 251 243 240 237 236 239 230 230 214 249 277 289 260 256 257
235 242 240 245 248 250 252 248 236 229 230 228 226 228 211 228 264 298 284 257 260 260
239 242 244 249 255 250 249 239 230 226 224 240 216 217 234 231 270 295 271 258 259 258
252 251 249 254 253 247 245 243 241 233 224 228 221 237 230 264 279 288 291 268 265 263
251 248 250 251 249 247 246 238 224 224 218 235 231 235 260 277 284 290 280 275 274 269
247 256 258 255 253 250 244 231 224 229 255 250 240 250 271 279 286 287 277 278 277 276
114 186 224 237 243 249 247 249 251 256 273 247 257 277 286 286 285 282 281 280 280 278
95 96 98 97 107 218 244 244 263 283 276 278 287 285 284 291 291 289 287 285 283 279
92 93 97 95 113 179 257 286 294 287 285 285 291 292 294 296 295 292 289 289 286 284
97 98 83 322 302 300 302 306 306 302 302 301 298 297 296 295 293 294 292 289 286 284
Height
1526 1527 1528 1531 1531 1534 1535 1538 1540 1542 1544 1546 1547 1548 1549 1548 1547 1545 1546 1545 1544 1544
1518 1519 1521 1524 1526 1528 1531 1533 1535 1537 1538 1540 1543 1544 1543 1543 1543 1542 1542 1541 1540 1540
1513 1514 1516 1518 1520 1522 1525 1527 1528 1531 1533 1534 1536 1537 1540 1538 1538 1540 1540 1539 1537 1537
1509 1511 1513 1514 1515 1516 1518 1520 1522 1524 1527 1529 1530 1532 1532 1535 1537 1536 1536 1535 1534 1533
1505 1507 1508 1510 1511 1512 1513 1514 1516 1518 1521 1523 1525 1528 1531 1530 1531 1532 1530 1531 1530 1529
1499 1501 1503 1504 1505 1506 1508 1510 1512 1515 1516 1517 1519 1522 1526 1525 1526 1525 1523 1526 1525 1524
1493 1494 1496 1499 1500 1502 1503 1505 1507 1508 1511 1519 1521 1521 1521 1521 1521 1519 1518 1518 1518 1517
1489 1490 1492 1494 1496 1497 1498 1500 1503 1506 1507 1509 1511 1516 1515 1515 1514 1513 1511 1511 1510 1509
1486 1487 1489 1490 1491 1493 1494 1496 1498 1501 1500 1506 1509 1510 1511 1509 1508 1507 1505 1504 1503 1502
1483 1484 1485 1486 1488 1490 1492 1494 1495 1498 1500 1501 1505 1505 1505 1504 1502 1499 1498 1498 1496 1494
1480 1482 1483 1485 1487 1489 1491 1493 1495 1497 1497 1499 1500 1500 1499 1498 1495 1494 1492 1490 1488 1486
1480 1481 1483 1485 1487 1489 1490 1492 1493 1494 1494 1494 1494 1494 1493 1492 1489 1486 1484 1482 1479 1477
1481 1483 1484 1486 1487 1489 1490 1490 1490 1490 1490 1489 1489 1488 1488 1486 1483 1479 1476 1474 1471 1468
1482 1483 1484 1485 1486 1486 1486 1487 1487 1487 1486 1485 1484 1483 1482 1480 1476 1473 1468 1465 1462 1460